Voltar ao catálogo

STARLINK-31472

AtivoComunicaçõesVLEO
NORAD 59730·PAYLOAD·🇺🇸 United States

Lançado May 13, 2024 de Cape Canaveral Space Force Station

Loading…

Próximas Passagens (próximas 24 horas)

TLE

AtualizadoSource: CelesTrak SupGP

Época: Sep 14, 2026, 21:51 UTC

1 59730C 24090A   26257.91090278  .00054346  00000+0  15504-2 0  2572
2 59730  42.9978 192.7264 0009203 177.9741 190.0424 15.35146013    16

Acompanhe STARLINK-31472 em tempo real com AllMySat

Download on the App Store